Content
SEND FEEDBACK

United States of America Flag

ORANGE PARK, FLORIDA


Home > North America > United States > Florida
Elevation: 30 feet     Latitude: 30 13N     Longitude: 081 40W

WEATHER
 
SELECT A DAY
Number of Records: 198,055;   Date Range: 1/1/95 - 3/22/16
 
SHARE

PRINT THIS DATA

[ ← Previous Day ]
WEATHER ALMANAC - JANUARY 30, 2013
[ Next Day → ]
[ °C ]   °F
Weather ElementAverageHighLow
Temperature71.8 °F82.9 °F (3:53 pm)59 °F (11:53 pm)
Dewpoint61.7 °F64 °F (2:53 am)57 °F (11:53 pm)
Humidity72.7 %94 % (11:32 pm)47 % (3:53 pm)
Barometer29.92 in30.10 in (1:53 am)29.80 in (6:53 pm)
Wind Speed14.9 mph25.3 mph (11:32 pm)
Wind Gust34.5 mph (11:32 pm)
Weather ElementAverage
Visibility8.6 mi
Wind DirectionSSW (199.3 °)

Weather ElementTotal
Precipitation0.53 in
Cooling Degree Days6 (Base 65)
Growing Degree Days21 (Base 50)
Averaged from 28 records on January 30, 2013
WEATHER CONDITIONS BREAKOUT
WIND DIRECTION BREAKOUT
WEATHER BY HOUR - JANUARY 30, 2013
[ °C ]   °F
Local TimeTemperatureDewpointHumidityBarometerVisibilityWind DirectionWind SpeedGust SpeedPrecipitationEventsConditions
1:53 AM68.0 °F63.0 °F84 %30.10 in10.0 miSSE (160°)6.9 mphMostly Cloudy
2:53 AM68.0 °F64.0 °F87 %30.08 in10.0 miSouth (170°)8.1 mphScattered Clouds
3:53 AM66.9 °F64.0 °F90 %30.07 in10.0 miSouth (180°)9.2 mphOvercast
4:53 AM68.0 °F64.0 °F87 %30.05 in10.0 miSouth (170°)11.5 mphPartly Cloudy
5:53 AM66.9 °F64.0 °F90 %30.04 in10.0 miSouth (170°)10.4 mphPartly Cloudy
6:53 AM66.9 °F64.0 °F90 %30.04 in10.0 miSouth (170°)10.4 mphPartly Cloudy
7:53 AM66.0 °F64.0 °F93 %30.02 in10.0 miSouth (170°)12.7 mphPartly Cloudy
8:53 AM68.0 °F64.0 °F87 %30.01 in10.0 miSouth (170°)12.7 mphScattered Clouds
9:53 AM70.0 °F64.0 °F81 %30.00 in10.0 miSouth (170°)12.7 mphScattered Clouds
10:53 AM73.9 °F62.1 °F66 %29.98 in10.0 miSouth (180°)18.4 mphScattered Clouds
11:53 AM75.9 °F62.1 °F62 %29.96 in10.0 miSouth (170°)16.1 mphScattered Clouds
12:53 PM78.1 °F62.1 °F58 %29.91 in10.0 miSouth (170°)15.0 mphScattered Clouds
1:53 PM80.1 °F61.0 °F52 %29.89 in10.0 miSouth (180°)12.7 mphMostly Cloudy
2:53 PM81.0 °F61.0 °F50 %29.86 in10.0 miSouth (180°)19.6 mphMostly Cloudy
3:53 PM82.9 °F61.0 °F47 %29.84 in10.0 miSouth (180°)13.8 mph25.3 mphScattered Clouds
4:53 PM82.0 °F61.0 °F49 %29.83 in10.0 miSouth (190°)16.1 mph24.2 mphMostly Cloudy
5:53 PM80.1 °F61.0 °F52 %29.81 in10.0 miSouth (190°)11.5 mphMostly Cloudy
6:53 PM79.0 °F60.1 °F52 %29.80 in10.0 miSouth (190°)13.8 mphMostly Cloudy
7:53 PM78.1 °F57.9 °F50 %29.81 in10.0 miSSW (200°)13.8 mphMostly Cloudy
8:53 PM75.9 °F61.0 °F60 %29.81 in10.0 miSouth (190°)16.1 mphMostly Cloudy
9:53 PM75.0 °F62.1 °F64 %29.81 in10.0 miSSW (200°)17.3 mph26.5 mphMostly Cloudy
10:53 PM75.0 °F62.1 °F64 %29.81 in10.0 miSouth (190°)16.1 mph25.3 mphOvercast
11:08 PM73.4 °F62.6 °F69 %29.82 in9.0 miSSW (200°)18.4 mph27.6 mph0.00 inRainLight Rain
11:26 PM66.2 °F62.6 °F88 %29.88 in2.0 miWNW (300°)19.6 mph31.1 mph0.07 inRainHeavy Rain
11:28 PM64.4 °F60.8 °F88 %29.88 in1.0 miWNW (290°)20.7 mph31.1 mph0.10 inRainHeavy Rain
11:32 PM60.8 °F59.0 °F94 %29.89 in2.0 miWest (280°)25.3 mph34.5 mph0.12 inRainHeavy Rain
11:37 PM60.8 °F57.2 °F88 %29.90 in3.0 miWest (280°)19.6 mph34.5 mph0.12 inRainLight Rain
11:53 PM59.0 °F57.0 °F93 %29.89 in4.0 miWNW (290°)17.3 mph27.6 mph0.12 inRainLight Rain
Hourly data recorded from KNIP, located miles away from Orange Park, Florida




STORIES FROM OUR PARTNERS